Location: Arrakis Observatory
(44.1122°N, 95.7153°W)
Time: 17:18:34
(UTC-05:00)

Amateur Radio Satellites - All Passes

Search period start: 25 September 2017 16:48
Search period end: 26 September 2017 16:48
Location: Arrakis Observatory, 44.1122°N, 95.7153°W

Satellite Date Start Highest point End Downlink Frequencies (MHz)
Time Altitude Azimuth
CUBESAT XI-V 25 Sep 16:53:36 16:57:10 21° 93° (E) 17:00:40 437.345
NO-84 25 Sep 17:01:26 17:03:04 13° 1° (N) 17:04:37 435.350 FM
ITUPSAT 1 25 Sep 17:10:38 17:15:26 65° 287° (WNW) 17:20:11 437.325
DOVE 4 25 Sep 17:21:13 17:25:21 43° 72° (ENE) 17:29:21 437.250
XW-2C 25 Sep 17:22:58 17:24:29 12° 63° (ENE) 17:26:00 145.795 - 145.815
AO-7 25 Sep 17:32:37 17:39:05 25° 267° (W) 17:45:36 .
PCSat 25 Sep 17:34:00 17:36:43 14° 327° (NNW) 17:39:28 145.827
LilacSat-2 25 Sep 17:36:37 17:39:18 18° 66° (ENE) 17:41:59 437.200
BEESAT 25 Sep 17:46:17 17:50:27 30° 294° (WNW) 17:54:36 436.000
KAITUO 1B 25 Sep 17:46:42 17:49:06 16° 65° (ENE) 17:51:30 145.475/437.950
MOZHAYETS 4 25 Sep 17:58:46 18:02:17 21° 296° (WNW) 18:05:45
RS-15 25 Sep 18:01:19 18:04:12 11° 269° (W) 18:07:04 29.354- 29.394
KKS-1 25 Sep 18:01:54 18:06:00 35° 98° (E) 18:10:06 437.445
STARS 25 Sep 18:20:16 18:23:47 23° 94° (E) 18:27:19 437.465
XW-2D 25 Sep 18:20:28 18:24:12 53° 74° (ENE) 18:27:59 145.860 - 145.880
HO-68 25 Sep 18:27:12 18:33:21 32° 60° (ENE) 18:39:31 435.675
CUTE-I 25 Sep 18:28:00 18:33:11 59° 71° (ENE) 18:38:25 437.470
CUBESAT XI-V 25 Sep 18:30:21 18:34:42 41° 290° (WNW) 18:39:00 437.345
XW-2F 25 Sep 18:30:58 18:34:46 65° 75° (ENE) 18:38:35 145.980 - 146.000
XW-2B 25 Sep 18:32:48 18:36:38 73° 75° (ENE) 18:40:30 145.730 - 145.750
NO-84 25 Sep 18:38:45 18:41:24 23° 23° (NNE) 18:43:54 435.350 FM
CUTE 1.7 + AOD 2 25 Sep 18:44:24 18:47:41 22° 66° (ENE) 18:50:58 437.475
NUDT-PHONESAT 25 Sep 18:46:43 18:50:28 77° 75° (ENE) 18:54:15 437.300
XW-2C 25 Sep 18:54:21 18:58:10 60° 260° (W) 19:01:59 145.795 - 145.815
DOVE 4 25 Sep 19:00:22 19:03:15 17° 268° (W) 19:06:05 437.250
Tancredo 1 25 Sep 19:00:45 19:03:01 25° 139° (SE) 19:05:18 437.200
LilacSat-2 25 Sep 19:09:42 19:13:18 37° 262° (W) 19:16:56 437.200
KAITUO 1B 25 Sep 19:19:11 19:22:46 40° 262° (W) 19:26:22 145.475/437.950
BEESAT 3 25 Sep 19:34:36 19:38:19 38° 117° (ESE) 19:42:06 437.485
CUBEBUG 2 25 Sep 19:36:20 19:40:22 42° 70° (ENE) 19:44:33 437.445
KKS-1 25 Sep 19:38:48 19:42:23 24° 295° (WNW) 19:45:58 437.445
UWE-3 25 Sep 19:38:49 19:42:28 27° 67° (ENE) 19:46:15 435.000/436.395/437.385
AO-85 25 Sep 19:45:44 19:48:04 15° 111° (ESE) 19:50:25 145.980
SEEDS 25 Sep 19:46:24 19:50:34 60° 74° (ENE) 19:54:46 437.485
BEESAT 2 25 Sep 19:48:37 19:51:17 17° 111° (ESE) 19:54:00 435.950
STARS 25 Sep 19:56:10 20:00:12 35° 291° (WNW) 20:04:13 437.465
XW-2D 25 Sep 19:57:11 19:58:42 12° 270° (W) 20:00:13 145.860 - 145.880
XW-2A 25 Sep 19:58:34 20:01:54 54° 74° (ENE) 20:05:16 145.665 - 145.685
AAUSAT CUBESAT 2 25 Sep 20:02:19 20:06:12 40° 71° (ENE) 20:10:06 437.432
CUTE-I 25 Sep 20:09:55 20:13:38 19° 269° (W) 20:17:21 437.470
Oscar 11 25 Sep 20:13:32 20:16:55 22° 66° (ENE) 20:20:19 .
HO-68 25 Sep 20:13:46 20:20:44 56° 259° (W) 20:27:47 435.675
NO-84 25 Sep 20:15:58 20:18:56 47° 223° (SW) 20:21:43 435.350 FM
AO-73 25 Sep 20:16:32 20:20:27 33° 69° (ENE) 20:24:28 145.935
CUTE 1.7 + AOD 2 25 Sep 20:19:18 20:23:17 37° 263° (W) 20:27:17 437.475
ZACube-1 25 Sep 20:20:38 20:24:42 40° 71° (ENE) 20:28:55 437.345
ISS 25 Sep 20:26:59 20:29:53 30° 139° (SE) 20:32:49 437.550
Tancredo 1 25 Sep 20:34:50 20:37:21 36° 337° (NNW) 20:39:53 437.200
STRAND 1 25 Sep 20:55:14 21:00:25 75° 103° (ESE) 21:05:34 437.568
nSIGHT-1 25 Sep 21:01:26 21:04:38 70° 146° (SSE) 21:07:52 .
SO-50 25 Sep 21:08:26 21:11:08 15° 34° (NE) 21:13:51 436.795
DELFI C3 25 Sep 21:10:07 21:12:55 19° 66° (ENE) 21:15:44 145.870
BEESAT 3 25 Sep 21:12:38 21:15:59 25° 316° (NW) 21:19:22 437.485
CUBEBUG 2 25 Sep 21:14:08 21:17:12 19° 269° (W) 21:20:21 437.445
UWE-3 25 Sep 21:15:00 21:18:49 30° 265° (W) 21:22:47 435.000/436.395/437.385
AO-85 25 Sep 21:24:15 21:28:02 49° 309° (NW) 21:31:54 145.980
SEEDS 25 Sep 21:24:42 21:26:38 13° 271° (W) 21:28:34 437.485
BEESAT 2 25 Sep 21:24:46 21:28:40 49° 309° (NW) 21:32:38 435.950
AAUSAT CUBESAT 2 25 Sep 21:38:54 21:41:48 18° 268° (W) 21:44:44 437.432
Max Valier Satellite 25 Sep 21:42:55 21:46:12 30° 70° (ENE) 21:49:31 145.860
Oscar 11 25 Sep 21:48:48 21:52:50 37° 263° (W) 21:56:54 .
AO-73 25 Sep 21:53:06 21:56:42 25° 266° (W) 22:00:25 145.935
FO-29 25 Sep 21:56:50 22:02:00 37° 98° (E) 22:07:41 435.910
ZACube-1 25 Sep 21:57:53 22:01:09 20° 268° (W) 22:04:30 437.345
UNISAT 6 25 Sep 22:03:02 22:05:17 13° 89° (E) 22:07:30 437.425
ISS 25 Sep 22:03:08 22:06:17 43° 336° (NNW) 22:09:28 437.550
Tancredo 1 25 Sep 22:10:28 22:12:19 16° 356° (N) 22:14:09 437.200
TIGRISAT 25 Sep 22:25:01 22:28:30 20° 92° (E) 22:32:00 435.000
STRAND 1 25 Sep 22:35:52 22:38:59 16° 301° (WNW) 22:42:05 437.568
EO-88 25 Sep 22:37:39 22:41:18 74° 258° (WSW) 22:45:00 145.990 - 145.960
nSIGHT-1 25 Sep 22:38:20 22:41:11 28° 344° (NNW) 22:44:04 .
YUBILEINY 25 Sep 22:42:46 22:50:13 30° 66° (ENE) 22:57:40 435.215
DELFI C3 25 Sep 22:43:47 22:47:26 35° 262° (W) 22:51:05 145.870
ESTCUBE 1 25 Sep 22:44:25 22:47:08 16° 62° (ENE) 22:49:53 437.505/2401.250
SO-50 25 Sep 22:47:45 22:52:21 77° 54° (NE) 22:56:59 436.795
PCSat 25 Sep 22:50:09 22:54:50 28° 46° (NE) 22:59:28 145.827
Max Valier Satellite 25 Sep 23:17:22 23:20:04 19° 267° (W) 23:22:48 145.860
LO-87 25 Sep 23:26:03 23:29:28 50° 74° (ENE) 23:32:56 145.935 - 145.965
UNISAT 6 25 Sep 23:37:46 23:42:27 71° 286° (WNW) 23:47:07 437.425
ISS 25 Sep 23:40:42 23:43:20 21° 356° (N) 23:45:57 437.550
FO-29 25 Sep 23:42:10 23:47:04 34° 293° (WNW) 23:52:26 435.910
Tancredo 1 25 Sep 23:45:10 23:47:23 22° 16° (NNE) 23:49:36 437.200
PRISM 25 Sep 23:49:50 23:53:54 83° 102° (ESE) 23:57:59 437.425
TIGRISAT 26 Sep 00:00:54 00:05:22 45° 289° (WNW) 00:09:51 435.000
EO-79 26 Sep 00:03:16 00:03:20 10° 88° (E) 00:03:23 145.935-145.965
QB50P2 26 Sep 00:15:25 00:18:08 16° 91° (E) 00:20:48 145.880/145.840
nSIGHT-1 26 Sep 00:15:37 00:18:13 21° 5° (N) 00:20:49 .
SPROUT 26 Sep 00:17:06 00:20:53 33° 69° (ENE) 00:24:43 437.525
ESTCUBE 1 26 Sep 00:18:59 00:23:27 60° 259° (W) 00:27:58 437.505/2401.250
SO-50 26 Sep 00:29:57 00:32:13 14° 251° (WSW) 00:34:29 436.795
PCSat 26 Sep 00:33:14 00:38:30 52° 245° (WSW) 00:43:43 145.827
AIST 2D 26 Sep 00:33:45 00:37:15 61° 100° (E) 00:40:42 435.315
VELOX 1 26 Sep 00:37:00 00:41:07 41° 70° (ENE) 00:45:15 145.980
YUBILEINY 26 Sep 00:39:04 00:47:39 65° 268° (W) 00:56:17 435.215
NANOSAT C BR1 26 Sep 00:47:26 00:51:08 28° 96° (E) 00:54:50 145.865
LO-87 26 Sep 01:02:35 01:03:12 10° 270° (W) 01:03:49 145.935 - 145.965
DUCHIFAT 1 26 Sep 01:14:07 01:18:16 48° 99° (E) 01:22:23 145.980
ISS 26 Sep 01:17:33 01:20:30 29° 17° (NNE) 01:23:27 437.550
Tancredo 1 26 Sep 01:19:21 01:22:01 67° 213° (SSW) 01:24:40 437.200
UKube-1 26 Sep 01:25:52 01:29:21 25° 66° (ENE) 01:32:51 .
PRISM 26 Sep 01:28:28 01:28:32 10° 301° (WNW) 01:28:36 437.425
POLYITAN 1 26 Sep 01:31:46 01:36:05 85° 284° (WNW) 01:40:23 437.675
EO-79 26 Sep 01:35:19 01:39:37 78° 284° (WNW) 01:43:52 145.935-145.965
DX 1 26 Sep 01:37:27 01:41:37 48° 71° (ENE) 01:45:47 434.975-435.025
BUGSAT 1 26 Sep 01:39:30 01:43:00 25° 95° (E) 01:46:29 437.445
Oscar 19 26 Sep 01:46:58 01:50:07 16° 90° (E) 01:53:15 437.125/150
QB50P2 26 Sep 01:50:01 01:54:10 48° 288° (WNW) 01:58:18 145.880/145.840
50 SAT 26 Sep 01:51:46 01:55:04 87° 257° (WSW) 01:58:24 437.505
nSIGHT-1 26 Sep 01:51:56 01:55:05 46° 25° (NNE) 01:58:15 .
Gurwin Techsat 1B 26 Sep 01:53:21 01:55:37 13° 88° (E) 01:57:53 435.225
SPROUT 26 Sep 01:53:26 01:56:50 23° 266° (W) 02:00:15 437.525
VELOX 1 26 Sep 02:14:29 02:17:44 20° 267° (W) 02:20:58 145.980
NANOSAT C BR1 26 Sep 02:23:09 02:26:47 28° 292° (WNW) 02:30:24 145.865
O/OREOS (USA 219) 26 Sep 02:29:15 02:33:36 52° 109° (ESE) 02:38:02 437.305
YUBILEINY 26 Sep 02:39:39 02:42:37 12° 289° (WNW) 02:45:34 435.215
ITUPSAT 1 26 Sep 02:42:16 02:45:53 22° 63° (ENE) 02:49:31 437.325
M-CUBED/EXP-1 PRIME 26 Sep 02:46:01 02:49:17 58° 291° (WNW) 02:52:28 437.505
DUCHIFAT 1 26 Sep 02:50:45 02:53:33 17° 296° (WNW) 02:56:21 145.980
ISS 26 Sep 02:53:54 02:57:10 63° 215° (SW) 03:00:25 437.550
UKube-1 26 Sep 03:01:21 03:05:13 33° 263° (W) 03:09:07 .
BUGSAT 1 26 Sep 03:14:37 03:18:20 31° 291° (WNW) 03:22:04 437.445
DX 1 26 Sep 03:15:17 03:18:03 16° 268° (W) 03:20:50 434.975-435.025
BEESAT 26 Sep 03:16:00 03:20:30 44° 70° (ENE) 03:25:04 436.000
MOZHAYETS 4 26 Sep 03:23:53 03:28:21 50° 71° (ENE) 03:32:51
Oscar 19 26 Sep 03:24:47 03:29:55 66° 288° (WNW) 03:35:00 437.125/150
nSIGHT-1 26 Sep 03:28:28 03:31:18 27° 222° (SW) 03:34:07 .
Gurwin Techsat 1B 26 Sep 03:30:53 03:36:15 86° 286° (WNW) 03:41:34 435.225
AO-7 26 Sep 03:38:23 03:44:26 22° 91° (E) 03:50:26 .
BEESAT 3 26 Sep 03:49:44 03:53:29 37° 48° (NE) 03:57:09 437.485
CUBESAT XI-V 26 Sep 03:58:05 04:01:58 26° 66° (ENE) 04:05:51 437.345
RS-15 26 Sep 03:58:32 04:07:11 23° 99° (E) 04:15:48 29.354- 29.394
BEESAT 2 26 Sep 04:03:43 04:06:50 21° 42° (NE) 04:09:56 435.950
O/OREOS (USA 219) 26 Sep 04:10:02 04:13:21 19° 308° (NW) 04:16:40 437.305
AO-85 26 Sep 04:13:03 04:16:52 28° 45° (NE) 04:20:53 145.980
ITUPSAT 1 26 Sep 04:18:48 04:23:23 47° 260° (W) 04:28:01 437.325
ITAMSAT 1 26 Sep 04:35:31 04:40:25 39° 98° (E) 04:45:17 435.822/435.867
BEESAT 26 Sep 04:54:51 04:58:29 21° 267° (W) 05:02:07 436.000
KKS-1 26 Sep 05:01:09 05:05:15 39° 69° (ENE) 05:09:23 437.445
MOZHAYETS 4 26 Sep 05:02:38 05:05:47 18° 269° (W) 05:08:58
Gurwin Techsat 1B 26 Sep 05:12:53 05:15:23 13° 304° (WNW) 05:17:52 435.225
STARS 26 Sep 05:18:12 05:21:47 25° 66° (ENE) 05:25:22 437.465
BEESAT 3 26 Sep 05:27:43 05:30:49 22° 247° (WSW) 05:33:52 437.485
AO-7 26 Sep 05:29:47 05:38:07 84° 290° (WNW) 05:46:24 .
CUBESAT XI-V 26 Sep 05:34:50 05:39:10 36° 263° (W) 05:43:31 437.345
BEESAT 2 26 Sep 05:40:54 05:44:51 50° 241° (WSW) 05:48:43 435.950
AO-85 26 Sep 05:53:09 05:57:22 42° 242° (WSW) 06:01:53 145.980
RS-15 26 Sep 06:05:31 06:17:48 83° 121° (ESE) 06:30:09 29.354- 29.394
ITAMSAT 1 26 Sep 06:15:18 06:19:43 29° 296° (WNW) 06:24:08 435.822/435.867
XW-2C 26 Sep 06:26:58 06:28:40 12° 90° (E) 06:30:20 145.795 - 145.815
STRAND 1 26 Sep 06:35:46 06:39:04 18° 60° (ENE) 06:42:21 437.568
KKS-1 26 Sep 06:38:36 06:41:57 21° 266° (W) 06:45:18 437.445
LilacSat-2 26 Sep 06:41:43 06:44:36 20° 93° (E) 06:47:27 437.200
CUTE-I 26 Sep 06:44:12 06:48:08 21° 92° (E) 06:52:05 437.470
KAITUO 1B 26 Sep 06:49:25 06:51:54 17° 92° (E) 06:54:21 145.475/437.950
STARS 26 Sep 06:54:04 06:57:58 32° 263° (W) 07:01:55 437.465
DOVE 4 26 Sep 06:55:00 06:59:16 80° 285° (WNW) 07:03:45 437.250
AO-7 26 Sep 07:23:51 07:29:45 22° 311° (NW) 07:35:39 .
XW-2D 26 Sep 07:25:21 07:29:08 64° 101° (E) 07:32:53 145.860 - 145.880
XW-2F 26 Sep 07:35:26 07:39:14 78° 102° (ESE) 07:42:58 145.980 - 146.000
XW-2B 26 Sep 07:37:47 07:41:37 88° 105° (ESE) 07:45:24 145.730 - 145.750
HO-68 26 Sep 07:40:05 07:46:05 28° 94° (E) 07:52:03 435.675
NUDT-PHONESAT 26 Sep 07:49:05 07:52:50 87° 110° (ESE) 07:56:32 437.300
XW-2C 26 Sep 07:59:27 08:03:08 49° 287° (WNW) 08:06:47 145.795 - 145.815
CUTE 1.7 + AOD 2 26 Sep 08:02:26 08:06:16 32° 96° (E) 08:10:02 437.475
STRAND 1 26 Sep 08:12:38 08:17:41 68° 258° (WSW) 08:22:49 437.568
FO-29 26 Sep 08:13:12 08:16:43 18° 61° (ENE) 08:20:08 435.910
LilacSat-2 26 Sep 08:15:31 08:18:55 30° 290° (WNW) 08:22:16 437.200
RS-15 26 Sep 08:20:18 08:31:44 41° 328° (NNW) 08:43:04 29.354- 29.394
KAITUO 1B 26 Sep 08:22:35 08:26:00 34° 289° (WNW) 08:29:24 145.475/437.950
CUTE-I 26 Sep 08:23:19 08:28:31 55° 289° (WNW) 08:33:43 437.470
XW-2A 26 Sep 08:51:12 08:54:32 45° 99° (E) 08:57:48 145.665 - 145.685
CUBEBUG 2 26 Sep 09:01:17 09:06:02 81° 101° (E) 09:10:49 437.445
XW-2D 26 Sep 09:01:43 09:02:47 11° 298° (WNW) 09:03:49 145.860 - 145.880
UWE-3 26 Sep 09:02:06 09:06:40 49° 99° (E) 09:11:11 435.000/436.395/437.385
UNISAT 6 26 Sep 09:03:42 09:05:57 14° 60° (ENE) 09:08:13 437.425
SEEDS 26 Sep 09:04:02 09:08:14 84° 284° (WNW) 09:12:24 437.485
AAUSAT CUBESAT 2 26 Sep 09:17:45 09:21:50 61° 101° (E) 09:25:53 437.432
TIGRISAT 26 Sep 09:25:20 09:28:35 21° 64° (ENE) 09:31:53 435.000
HO-68 26 Sep 09:27:09 09:34:13 61° 292° (WNW) 09:41:16 435.675
Oscar 11 26 Sep 09:34:12 09:38:12 35° 97° (E) 09:42:09 .
AO-73 26 Sep 09:38:21 09:42:53 57° 100° (E) 09:47:20 145.935
CUTE 1.7 + AOD 2 26 Sep 09:38:32 09:41:56 24° 293° (WNW) 09:45:18 437.475
ZACube-1 26 Sep 09:43:00 09:47:36 72° 101° (E) 09:52:09 437.345
FO-29 26 Sep 09:55:51 10:01:23 65° 258° (WSW) 10:06:36 435.910
DELFI C3 26 Sep 10:19:08 10:22:19 23° 94° (E) 10:25:29 145.870
XW-2A 26 Sep 10:25:30 10:26:50 12° 296° (WNW) 10:28:10 145.665 - 145.685
UNISAT 6 26 Sep 10:37:43 10:42:04 68° 259° (WSW) 10:46:33 437.425
RS-15 26 Sep 10:38:41 10:48:44 28° 1° (N) 10:58:31 29.354- 29.394
UWE-3 26 Sep 10:39:21 10:42:45 20° 296° (WNW) 10:46:08 435.000/436.395/437.385
CUBEBUG 2 26 Sep 10:39:46 10:42:00 13° 300° (WNW) 10:44:16 437.445
PRISM 26 Sep 10:39:59 10:44:03 70° 74° (ENE) 10:48:07 437.425
Max Valier Satellite 26 Sep 10:44:37 10:48:03 33° 97° (E) 10:51:26 145.860
AAUSAT CUBESAT 2 26 Sep 10:54:49 10:56:47 13° 298° (WNW) 10:58:44 437.432
EO-79 26 Sep 10:57:21 10:57:46 10° 59° (ENE) 10:58:11 145.935-145.965
O/OREOS (USA 219) 26 Sep 10:59:17 11:02:21 17° 51° (NE) 11:05:25 437.305
TIGRISAT 26 Sep 11:00:49 11:04:58 42° 262° (W) 11:09:14 435.000
AIST 2D 26 Sep 11:09:23 11:12:23 27° 70° (ENE) 11:15:27 435.315
QB50P2 26 Sep 11:09:48 11:12:18 16° 63° (ENE) 11:14:48 145.880/145.840
Oscar 11 26 Sep 11:10:42 11:14:08 23° 294° (WNW) 11:17:34 .
AO-73 26 Sep 11:15:42 11:18:38 17° 297° (WNW) 11:21:33 145.935
HO-68 26 Sep 11:17:16 11:20:33 14° 313° (NW) 11:23:49 435.675
ZACube-1 26 Sep 11:20:54 11:23:17 14° 299° (WNW) 11:25:40 437.345
NO-84 26 Sep 11:34:18 11:35:43 12° 126° (SE) 11:37:07 435.350 FM
EO-88 26 Sep 11:38:14 11:41:53 69° 285° (WNW) 11:45:30 145.990 - 145.960
NANOSAT C BR1 26 Sep 11:40:53 11:44:21 25° 67° (ENE) 11:47:50 145.865
YUBILEINY 26 Sep 11:46:25 11:53:44 32° 83° (E) 12:01:02 435.215
DELFI C3 26 Sep 11:53:42 11:57:03 27° 291° (WNW) 12:00:23 145.870
M-CUBED/EXP-1 PRIME 26 Sep 11:59:18 12:02:17 20° 62° (ENE) 12:05:08 437.505
DUCHIFAT 1 26 Sep 12:06:59 12:10:55 42° 71° (ENE) 12:14:54 145.980
ESTCUBE 1 26 Sep 12:10:17 12:13:59 25° 94° (E) 12:17:40 437.505/2401.250
Max Valier Satellite 26 Sep 12:19:01 12:21:38 18° 294° (WNW) 12:24:15 145.860
PRISM 26 Sep 12:19:18 12:19:46 10° 271° (W) 12:20:14 437.425
LO-87 26 Sep 12:24:25 12:27:57 52° 100° (E) 12:31:29 145.935 - 145.965
POLYITAN 1 26 Sep 12:25:13 12:29:26 85° 72° (ENE) 12:33:42 437.675
EO-79 26 Sep 12:28:37 12:32:49 88° 263° (W) 12:37:05 145.935-145.965
BUGSAT 1 26 Sep 12:30:52 12:33:54 21° 65° (ENE) 12:36:59 437.445
O/OREOS (USA 219) 26 Sep 12:37:39 12:42:13 63° 250° (WSW) 12:46:46 437.305
AIST 2D 26 Sep 12:42:56 12:45:35 20° 266° (W) 12:48:15 435.315
QB50P2 26 Sep 12:43:31 12:47:39 54° 260° (W) 12:51:49 145.880/145.840
RS-15 26 Sep 12:54:01 13:05:29 44° 35° (NE) 13:16:22 29.354- 29.394
Oscar 19 26 Sep 13:04:42 13:09:06 29° 65° (ENE) 13:13:32 437.125/150
SO-50 26 Sep 13:05:03 13:07:49 16° 110° (ESE) 13:10:35 436.795
NO-84 26 Sep 13:08:46 13:12:42 81° 141° (SE) 13:16:19 435.350 FM
Gurwin Techsat 1B 26 Sep 13:14:59 13:19:15 25° 63° (ENE) 13:23:31 435.225
NANOSAT C BR1 26 Sep 13:16:15 13:19:57 30° 264° (W) 13:23:40 145.865
M-CUBED/EXP-1 PRIME 26 Sep 13:32:34 13:36:31 39° 255° (WSW) 13:40:12 437.505
PCSat 26 Sep 13:35:16 13:38:29 16° 104° (ESE) 13:41:41 145.827
SPROUT 26 Sep 13:36:17 13:40:29 51° 100° (E) 13:44:40 437.525
YUBILEINY 26 Sep 13:41:26 13:49:59 60° 284° (WNW) 13:58:35 435.215
DUCHIFAT 1 26 Sep 13:43:55 13:46:47 18° 268° (W) 13:49:40 145.980
ESTCUBE 1 26 Sep 13:46:46 13:50:50 34° 291° (WNW) 13:54:52 437.505/2401.250
LO-87 26 Sep 13:59:31 14:00:55 12° 297° (WNW) 14:02:20 145.935 - 145.965
VELOX 1 26 Sep 14:01:16 14:05:39 67° 102° (ESE) 14:10:01 145.980
BUGSAT 1 26 Sep 14:05:21 14:09:03 34° 263° (W) 14:12:48 437.445
ITAMSAT 1 26 Sep 14:20:16 14:21:27 11° 54° (NE) 14:22:38 435.822/435.867
AO-7 26 Sep 14:38:43 14:46:07 38° 57° (ENE) 14:53:30 .
50 SAT 26 Sep 14:42:35 14:45:54 69° 102° (ESE) 14:49:11 437.505
SO-50 26 Sep 14:43:20 14:47:47 62° 308° (NW) 14:52:16 436.795
Oscar 19 26 Sep 14:43:25 14:48:16 39° 262° (W) 14:53:09 437.125/150
UKube-1 26 Sep 14:46:19 14:50:15 34° 97° (E) 14:54:10 .
NO-84 26 Sep 14:47:25 14:50:25 22° 337° (NNW) 14:53:14 435.350 FM
Gurwin Techsat 1B 26 Sep 14:53:48 14:58:55 47° 261° (W) 15:04:03 435.225
DX 1 26 Sep 14:59:47 15:04:08 75° 103° (ESE) 15:08:28 434.975-435.025
RS-15 26 Sep 15:07:01 15:18:56 73° 242° (WSW) 15:30:10 29.354- 29.394
SPROUT 26 Sep 15:13:14 15:15:59 17° 297° (WNW) 15:18:43 437.525
PCSat 26 Sep 15:15:46 15:21:11 77° 302° (WNW) 15:26:39 145.827
MOZHAYETS 4 26 Sep 15:20:21 15:21:01 10° 87° (E) 15:21:39
VELOX 1 26 Sep 15:39:19 15:41:34 14° 299° (WNW) 15:43:48 145.980
YUBILEINY 26 Sep 15:45:27 15:49:00 13° 308° (NW) 15:52:34 435.215
ITAMSAT 1 26 Sep 15:54:50 15:59:58 71° 73° (ENE) 16:05:08 435.822/435.867
ITUPSAT 1 26 Sep 16:17:32 16:22:03 39° 98° (E) 16:26:32 437.325
UKube-1 26 Sep 16:22:39 16:26:06 24° 294° (WNW) 16:29:33 .
SO-50 26 Sep 16:27:02 16:29:09 13° 329° (NNW) 16:31:17 436.795
NO-84 26 Sep 16:27:05 16:28:47 13° 358° (N) 16:30:24 435.350 FM
DOVE 4 26 Sep 16:27:14 16:29:02 13° 62° (ENE) 16:30:50 437.250
AO-7 26 Sep 16:30:25 16:38:34 57° 257° (WSW) 16:46:45 .
DX 1 26 Sep 16:37:54 16:39:43 12° 300° (WNW) 16:41:32 434.975-435.025
